Dania, FL

8:24 AM EST on February 24, 2017 (GMT -0500)
Fort Lauderdale-Hollywood International

Weather History for KFLL - March, 2014

Change the Weather History Date:

Thursday, March 13, 2014

  Actual Average Record
Temperature  
Mean Temperature 68 °F 72 °F  
Max Temperature 78 °F 80 °F 91 °F (1964)
Min Temperature 62 °F 66 °F 36 °F (1924)
Degree Days  
Heating Degree Days 0 0  
Month to date heating degree days 7  
Since 1 July heating degree days 109  
Cooling Degree Days 4 8  
Month to date cooling degree days 100  
Year to date cooling degree days 456  
Growing Degree Days 18 (Base 50)    
Moisture  
Dew Point 58 °F    
Average Humidity 67    
Maximum Humidity 85    
Minimum Humidity 50    
Precipitation  
Precipitation 0.00 in 0.10 in 1.70 in (1984)
Month to date precipitation 1.30  
Year to date precipitation 7.89  
Snow  
Snow 0.00 in - - ()
Month to date snowfall  
Since 1 July snowfall  
Snow Depth -    
Sea Level Pressure  
Sea Level Pressure 29.99 in    
Wind  
Wind Speed 12 mph (NNW)    
Max Wind Speed 17 mph    
Max Gust Speed 25 mph    
Visibility 10 miles    
Events      
T = Trace of Precipitation, MM = Missing Value Source: NWS Daily Summary

Daily Weather History Graph

Daily Weather History Graph

Search for Another Location

Airport or City:

Trip Planner

Search our weather history database for the weather conditions in past years. The results will help you decide how hot, cold, wet, or windy it might be!

Date:

Astronomy

Mar. 13, 2014 Rise Set
Actual Time 7:31 AM EDT 7:28 PM EDT
Civil Twilight 7:08 AM EDT 7:51 PM EDT
Nautical Twilight 6:42 AM EDT 8:18 PM EDT
Astronomical Twilight 6:15 AM EDT 8:45 PM EDT
Moon 5:04 PM EDT (3/13) 5:24 AM EDT (3/13)
Length of Visible Light 12h 42m
Length of Day
11h 56m
Waxing Gibbous, 91% of the Moon is Illuminated
Mar 13
Waxing Gibbous
Mar 16
Full
Mar 23
Last Quarter
Mar 30
New
Apr 7
First Quarter

Hourly Weather History & Observations

Time (EDT) Temp. Dew Point Humidity Pressure Visibility Wind Dir Wind Speed Gust Speed Precip Events Conditions
12:53 AM 75.9 °F 68.0 °F 76% 29.87 in 10.0 mi West 11.5 mph - N/A   Overcast
1:53 AM 73.9 °F 69.1 °F 85% 29.86 in 10.0 mi West 8.1 mph - 0.00 in   Overcast
2:53 AM 75.0 °F 69.1 °F 82% 29.86 in 10.0 mi WNW 10.4 mph - N/A   Mostly Cloudy
3:53 AM 73.0 °F 68.0 °F 84% 29.85 in 10.0 mi NW 13.8 mph 20.7 mph N/A   Mostly Cloudy
4:53 AM 70.0 °F 63.0 °F 78% 29.86 in 10.0 mi NW 15.0 mph 25.3 mph N/A   Overcast
5:34 AM 69.1 °F 63.0 °F 81% 29.88 in 10.0 mi WNW 15.0 mph 21.9 mph N/A   Mostly Cloudy
5:53 AM 68.0 °F 62.1 °F 81% 29.89 in 10.0 mi NW 12.7 mph 23.0 mph N/A   Scattered Clouds
6:41 AM 68.0 °F 61.0 °F 78% 29.92 in 10.0 mi NW 12.7 mph 20.7 mph N/A   Mostly Cloudy
6:53 AM 68.0 °F 61.0 °F 78% 29.93 in 10.0 mi WNW 10.4 mph 19.6 mph N/A   Mostly Cloudy
7:05 AM 68.0 °F 60.1 °F 76% 29.94 in 10.0 mi NW 12.7 mph 20.7 mph N/A   Partly Cloudy
7:53 AM 66.9 °F 59.0 °F 76% 29.96 in 10.0 mi WNW 11.5 mph 20.7 mph N/A   Partly Cloudy
8:53 AM 70.0 °F 59.0 °F 68% 29.99 in 10.0 mi NNW 12.7 mph - N/A   Scattered Clouds
9:53 AM 70.0 °F 59.0 °F 68% 30.02 in 10.0 mi NW 13.8 mph - N/A   Mostly Cloudy
10:53 AM 73.9 °F 57.9 °F 57% 30.04 in 10.0 mi North 12.7 mph 20.7 mph N/A   Scattered Clouds
11:53 AM 75.0 °F 57.9 °F 55% 30.04 in 10.0 mi North 11.5 mph - N/A   Scattered Clouds
12:53 PM 75.0 °F 61.0 °F 62% 30.04 in 10.0 mi NNE 11.5 mph 19.6 mph N/A   Mostly Cloudy
1:53 PM 73.9 °F 61.0 °F 64% 30.03 in 10.0 mi NE 13.8 mph - N/A   Scattered Clouds
2:53 PM 73.0 °F 59.0 °F 61% 30.02 in 10.0 mi NE 17.3 mph - N/A   Mostly Cloudy
3:53 PM 72.0 °F 55.9 °F 57% 30.03 in 10.0 mi NNE 15.0 mph 24.2 mph N/A   Partly Cloudy
4:53 PM 71.1 °F 54.0 °F 55% 30.03 in 10.0 mi ENE 15.0 mph - N/A   Partly Cloudy
5:53 PM 70.0 °F 51.1 °F 51% 30.04 in 10.0 mi ENE 12.7 mph - N/A   Partly Cloudy
6:53 PM 68.0 °F 48.9 °F 50% 30.06 in 10.0 mi NE 11.5 mph 21.9 mph N/A   Partly Cloudy
7:53 PM 64.9 °F 48.9 °F 56% 30.09 in 10.0 mi NNE 10.4 mph 18.4 mph N/A   Clear
8:53 PM 64.9 °F 48.9 °F 56% 30.11 in 10.0 mi North 8.1 mph - N/A   Clear
9:53 PM 63.0 °F 48.0 °F 58% 30.14 in 10.0 mi NNE 6.9 mph - N/A   Clear
10:53 PM 62.1 °F 45.0 °F 53% 30.15 in 10.0 mi North 6.9 mph - N/A   Clear
11:53 PM 62.1 °F 46.0 °F 56% 30.16 in 10.0 mi North 8.1 mph - N/A   Clear